Location: Pine Mountain Observatory
(43.7910°N, 120.9377°W)
Time: 13:35:34
(UTC-07:00)

Vanguard 1 Rocket - Pass Details

Date: 30 May 2019
Orbit: 652 x 4224 km, 34.3° (Epoch: 17 June)

Event Time Altitude Azimuth Distance (km) Brightness Sun altitude
Exits shadow 02:41:51 31° 165° (SSE) 1,423 8.0 -20.5°
Drops below altitude 10° 02:47:22 10° 112° (ESE) 3,056 10.1 -20.1°
Sets 02:51:18 0° 104° (ESE) 4,526 11.1 -19.8°
